NAVSTAR 71 (USA 256) 1 40105U 14045A 21109.41703744 .00000032 00000-0 00000-0 0 9992 2 40105 54.6181 163.7324 0016607 107.3317 252.9233 2.00548438 48276 ATLAS 5 CENTAUR R/B 1 40106U 14045B 21109.76188327 .00000024 00000-0 00000-0 0 9996 2 40106 54.8345 173.6016 0172530 339.2778 20.1045 1.90830963 46790